| time (UTC) | temp F | wind direction | speed MPH | gust MPH | rain 1hr in | rain 24hr in | rain mn in | humidity % | barometer mb |
| 20260507090853 | 58 | 53 | 5.0 | 5.0 | 0.01 | 0.09 | 0.01 | 89 | 1010.5 |
| 20260507080901 | 62 | 24 | 13.0 | 13.0 | 0.00 | 0.08 | 0.00 | 89 | 1010.3 |
| 20260507070842 | 67 | 323 | 2.0 | 2.0 | 0.00 | 0.08 | 0.00 | 89 | 1009.5 |
| 20260507060907 | 68 | 194 | 3.0 | 3.0 | 0.00 | 0.08 | 0.00 | 85 | 1008.3 |
| 20260507050855 | 68 | 205 | 4.0 | 4.0 | 0.00 | 0.08 | 0.00 | 85 | 1009.3 |
| 20260507040852 | 68 | 212 | 4.0 | 4.0 | 0.00 | 0.08 | 0.00 | 85 | 1009.3 |
| 20260507030855 | 68 | 192 | 4.0 | 6.0 | 0.00 | 0.08 | 0.08 | 84 | 1009.4 |
| 20260507020858 | 68 | 200 | 6.0 | 6.0 | 0.00 | 0.08 | 0.08 | 84 | 1009.8 |
| 20260507000918 | 69 | 211 | 2.0 | 5.0 | 0.00 | 0.08 | 0.08 | 81 | 1009.8 |
| 20260506230858 | 70 | 188 | 6.0 | 6.0 | 0.00 | 0.08 | 0.08 | 77 | 1009.3 |
| 20260506220902 | 71 | 233 | 4.0 | 4.0 | 0.00 | 0.08 | 0.08 | 76 | 1009.3 |
| 20260506210844 | 71 | 185 | 4.0 | 9.0 | 0.00 | 0.08 | 0.08 | 77 | 1009.3 |
| 20260506200844 | 69 | 207 | 5.0 | 5.0 | 0.00 | 0.08 | 0.08 | 83 | 1009.8 |
| 20260506190901 | 67 | 169 | 4.0 | 5.0 | 0.01 | 0.08 | 0.08 | 84 | 1009.8 |
| 20260506180907 | 66 | 174 | 7.0 | 10.0 | 0.00 | 0.07 | 0.07 | 84 | 1010.8 |
| 20260506170903 | 65 | 182 | 4.0 | 4.0 | 0.00 | 0.07 | 0.07 | 88 | 1010.5 |
| 20260506160854 | 63 | 173 | 4.0 | 5.0 | 0.01 | 0.07 | 0.07 | 89 | 1011.0 |
| 20260506150850 | 63 | 160 | 5.0 | 8.0 | 0.06 | 0.06 | 0.06 | 89 | 1011.9 |
| 20260506140906 | 64 | 176 | 5.0 | 7.0 | 0.00 | 0.00 | 0.00 | 83 | 1012.1 |
| 20260506130908 | 66 | 186 | 5.0 | 5.0 | 0.00 | 0.00 | 0.00 | 74 | 1011.7 |
| 20260506120853 | 65 | 196 | 6.0 | 9.0 | 0.00 | 0.00 | 0.00 | 73 | 1011.4 |
| 20260506110852 | 64 | 188 | 6.0 | 6.0 | 0.00 | 0.00 | 0.00 | 76 | 1011.4 |
| 20260506100901 | 64 | 189 | 3.0 | 5.0 | 0.00 | 0.00 | 0.00 | 75 | 1011.5 |